Time,TemperatureF,DewpointF,PressureIn,WindDirection,WindDirectionDegrees,WindSpeedMPH,WindSpeedGustMPH,Humidity,HourlyPrecipIn,Conditions,Clouds,dailyrainin,SolarRadiationWatts/m^2,SoftwareType,DateUTC
2013-03-25 00:03:00,37.7,13.8,30.17,WNW,287,0.0,0.0,37,0.00,,,0.00,0,WeatherHawk,2013-03-25 07:03:00,
2013-03-25 00:08:00,37.2,13.3,30.17,West,275,0.0,-999.0,37,0.00,,,0.00,0,WeatherHawk,2013-03-25 07:08:00,
2013-03-25 00:13:00,37.7,13.8,30.17,WNW,301,4.0,0.0,37,0.00,,,0.00,0,WeatherHawk,2013-03-25 07:13:00,
2013-03-25 00:18:00,38.0,14.1,30.17,West,273,2.0,0.0,37,0.00,,,0.00,0,WeatherHawk,2013-03-25 07:18:00,
2013-03-25 00:23:00,37.7,13.8,30.17,West,278,3.0,0.0,37,0.00,,,0.00,0,WeatherHawk,2013-03-25 07:23:00,
2013-03-25 00:28:00,37.7,13.8,30.17,West,260,1.0,-999.0,37,0.00,,,0.00,1,WeatherHawk,2013-03-25 07:28:00,
2013-03-25 00:33:00,37.2,14.0,30.17,WSW,242,0.0,-999.0,38,0.00,,,0.00,0,WeatherHawk,2013-03-25 07:33:00,
2013-03-25 00:38:00,37.4,14.1,30.17,WSW,248,0.0,0.0,38,0.00,,,0.00,0,WeatherHawk,2013-03-25 07:38:00,
2013-03-25 00:43:00,37.3,14.6,30.17,SW,218,0.0,0.0,39,0.00,,,0.00,0,WeatherHawk,2013-03-25 07:43:00,
2013-03-25 00:48:00,36.9,14.3,30.17,West,266,0.0,0.0,39,0.00,,,0.00,0,WeatherHawk,2013-03-25 07:48:00,
2013-03-25 00:53:00,37.0,14.4,30.17,West,266,0.0,-999.0,39,0.00,,,0.00,0,WeatherHawk,2013-03-25 07:53:00,
2013-03-25 01:00:00,37.0,14.4,30.17,SW,227,0.0,-999.0,39,0.00,,,0.00,0,WeatherHawk,2013-03-25 08:00:00,
2013-03-25 01:05:00,37.1,15.0,30.17,West,270,0.0,0.0,40,0.00,,,0.00,1,WeatherHawk,2013-03-25 08:05:00,
2013-03-25 01:10:00,36.4,14.4,30.17,SW,227,0.0,0.0,40,0.00,,,0.00,0,WeatherHawk,2013-03-25 08:10:00,
2013-03-25 01:15:00,36.6,14.6,30.17,SW,227,0.0,0.0,40,0.00,,,0.00,1,WeatherHawk,2013-03-25 08:15:00,
2013-03-25 01:21:00,37.2,15.2,30.17,WNW,283,2.0,0.0,40,0.00,,,0.00,0,WeatherHawk,2013-03-25 08:21:00,
2013-03-25 01:26:00,37.2,13.9,30.17,West,280,0.0,0.0,38,0.00,,,0.00,0,WeatherHawk,2013-03-25 08:26:00,
2013-03-25 01:31:00,37.0,14.4,30.17,WNW,282,0.0,0.0,39,0.00,,,0.00,0,WeatherHawk,2013-03-25 08:31:00,
2013-03-25 01:36:00,37.4,13.5,30.17,NW,323,4.0,0.0,37,0.00,,,0.00,0,WeatherHawk,2013-03-25 08:36:00,
2013-03-25 01:42:00,37.3,13.4,30.17,West,272,2.0,0.0,37,0.00,,,0.00,0,WeatherHawk,2013-03-25 08:42:00,
2013-03-25 01:47:00,37.3,13.5,30.17,WSW,249,1.0,0.0,37,0.00,,,0.00,1,WeatherHawk,2013-03-25 08:47:00,
2013-03-25 01:52:00,37.1,13.8,30.17,WSW,242,0.0,0.0,38,0.00,,,0.00,0,WeatherHawk,2013-03-25 08:52:00,
2013-03-25 01:58:00,36.7,13.5,30.17,WSW,250,0.0,0.0,38,0.00,,,0.00,0,WeatherHawk,2013-03-25 08:58:00,
2013-03-25 02:03:00,36.4,13.2,30.17,WSW,256,0.0,0.0,38,0.00,,,0.00,0,WeatherHawk,2013-03-25 09:03:00,
2013-03-25 02:08:00,36.5,13.3,30.17,West,267,0.0,0.0,38,0.00,,,0.00,0,WeatherHawk,2013-03-25 09:08:00,
2013-03-25 02:14:00,36.1,14.2,30.17,SSW,208,0.0,0.0,40,0.00,,,0.00,0,WeatherHawk,2013-03-25 09:14:00,
2013-03-25 02:19:00,36.1,14.7,30.17,West,265,0.0,0.0,41,0.00,,,0.00,0,WeatherHawk,2013-03-25 09:19:00,
2013-03-25 02:24:00,34.9,13.7,30.16,South,172,0.0,0.0,41,0.00,,,0.00,0,WeatherHawk,2013-03-25 09:24:00,
2013-03-25 02:29:00,35.6,15.3,30.17,South,172,0.0,0.0,43,0.00,,,0.00,0,WeatherHawk,2013-03-25 09:29:00,
2013-03-25 02:34:00,36.3,16.5,30.17,South,172,0.0,0.0,44,0.00,,,0.00,0,WeatherHawk,2013-03-25 09:34:00,
2013-03-25 02:39:00,36.6,15.7,30.17,South,172,0.0,0.0,42,0.00,,,0.00,0,WeatherHawk,2013-03-25 09:39:00,
2013-03-25 02:44:00,35.7,15.4,30.17,NW,320,0.0,0.0,43,0.00,,,0.00,0,WeatherHawk,2013-03-25 09:44:00,
2013-03-25 02:50:00,35.4,16.2,30.17,NW,320,0.0,0.0,45,0.00,,,0.00,0,WeatherHawk,2013-03-25 09:50:00,
2013-03-25 02:55:00,35.4,16.7,30.17,NW,320,0.0,0.0,46,0.00,,,0.00,0,WeatherHawk,2013-03-25 09:55:00,
2013-03-25 03:00:00,34.9,16.7,30.17,NW,320,0.0,0.0,47,0.00,,,0.00,0,WeatherHawk,2013-03-25 10:00:00,
2013-03-25 03:06:00,34.5,16.9,30.16,NW,320,0.0,0.0,48,0.00,,,0.00,0,WeatherHawk,2013-03-25 10:06:00,
2013-03-25 03:11:00,35.3,19.0,30.17,NW,320,0.0,0.0,51,0.00,,,0.00,0,WeatherHawk,2013-03-25 10:11:00,
2013-03-25 03:16:00,35.4,19.1,30.17,NW,320,0.0,0.0,51,0.00,,,0.00,1,WeatherHawk,2013-03-25 10:16:00,
2013-03-25 03:21:00,34.9,19.6,30.17,NW,320,0.0,0.0,53,0.00,,,0.00,0,WeatherHawk,2013-03-25 10:21:00,
2013-03-25 03:26:00,35.1,19.7,30.17,NW,307,0.0,0.0,53,0.00,,,0.00,0,WeatherHawk,2013-03-25 10:26:00,
2013-03-25 03:32:00,34.5,19.1,30.17,NW,307,0.0,0.0,53,0.00,,,0.00,0,WeatherHawk,2013-03-25 10:32:00,
2013-03-25 03:37:00,34.7,19.8,30.17,NW,307,0.0,0.0,54,0.00,,,0.00,0,WeatherHawk,2013-03-25 10:37:00,
2013-03-25 03:42:00,34.7,19.8,30.17,NW,307,0.0,0.0,54,0.00,,,0.00,0,WeatherHawk,2013-03-25 10:42:00,
2013-03-25 03:47:00,34.7,19.3,30.17,NNE,15,0.0,0.0,53,0.00,,,0.00,0,WeatherHawk,2013-03-25 10:47:00,
2013-03-25 03:52:00,34.6,19.7,30.17,NNE,15,0.0,0.0,54,0.00,,,0.00,0,WeatherHawk,2013-03-25 10:52:00,
2013-03-25 03:57:00,34.6,19.7,30.17,NNE,15,0.0,0.0,54,0.00,,,0.00,0,WeatherHawk,2013-03-25 10:57:00,
2013-03-25 04:02:00,34.3,19.9,30.16,NNE,15,0.0,0.0,55,0.00,,,0.00,0,WeatherHawk,2013-03-25 11:02:00,
2013-03-25 04:08:00,34.2,20.2,30.16,NNE,15,0.0,0.0,56,0.00,,,0.00,0,WeatherHawk,2013-03-25 11:08:00,
2013-03-25 04:13:00,34.0,20.4,30.16,NNE,15,0.0,-999.0,57,0.00,,,0.00,0,WeatherHawk,2013-03-25 11:13:00,
2013-03-25 04:18:00,34.0,20.8,30.17,NNE,15,0.0,-999.0,58,0.00,,,0.00,0,WeatherHawk,2013-03-25 11:18:00,
2013-03-25 04:23:00,33.9,20.7,30.16,NNE,15,0.0,0.0,58,0.00,,,0.00,0,WeatherHawk,2013-03-25 11:23:00,
2013-03-25 04:28:00,33.9,21.1,30.16,NNE,15,0.0,0.0,59,0.00,,,0.00,0,WeatherHawk,2013-03-25 11:28:00,
2013-03-25 04:34:00,33.7,20.6,30.16,NNE,15,0.0,0.0,58,0.00,,,0.00,0,WeatherHawk,2013-03-25 11:34:00,
2013-03-25 04:39:00,33.7,20.5,30.16,NNE,15,0.0,0.0,58,0.00,,,0.00,0,WeatherHawk,2013-03-25 11:39:00,
2013-03-25 04:45:00,32.4,20.1,30.16,NNE,15,0.0,0.0,60,0.00,,,0.00,1,WeatherHawk,2013-03-25 11:45:00,
2013-03-25 04:50:00,33.1,21.2,30.16,NNE,15,0.0,0.0,61,0.00,,,0.00,0,WeatherHawk,2013-03-25 11:50:00,
2013-03-25 04:55:00,33.1,21.6,30.16,NNE,15,0.0,0.0,62,0.00,,,0.00,0,WeatherHawk,2013-03-25 11:55:00,
2013-03-25 05:00:00,32.5,21.7,30.16,NNE,15,0.0,0.0,64,0.00,,,0.00,0,WeatherHawk,2013-03-25 12:00:00,
2013-03-25 05:06:00,33.4,22.5,30.16,NNW,340,0.0,0.0,64,0.00,,,0.00,0,WeatherHawk,2013-03-25 12:06:00,
2013-03-25 05:12:00,33.3,21.7,30.17,NNW,347,0.0,0.0,62,0.00,,,0.00,0,WeatherHawk,2013-03-25 12:12:00,
2013-03-25 05:18:00,33.0,21.5,30.16,NNW,335,0.0,0.0,62,0.00,,,0.00,0,WeatherHawk,2013-03-25 12:18:00,
2013-03-25 05:23:00,32.0,20.9,30.16,West,277,0.0,0.0,63,0.00,,,0.00,0,WeatherHawk,2013-03-25 12:23:00,
2013-03-25 05:28:00,32.5,22.1,30.16,West,277,0.0,0.0,65,0.00,,,0.00,0,WeatherHawk,2013-03-25 12:28:00,
2013-03-25 05:33:00,32.0,21.2,30.16,West,277,0.0,0.0,64,0.00,,,0.00,0,WeatherHawk,2013-03-25 12:33:00,
2013-03-25 05:38:00,32.8,22.3,30.16,West,277,0.0,0.0,65,0.00,,,0.00,0,WeatherHawk,2013-03-25 12:38:00,
2013-03-25 05:43:00,32.4,22.3,30.16,West,277,0.0,-999.0,66,0.00,,,0.00,0,WeatherHawk,2013-03-25 12:43:00,
2013-03-25 05:48:00,32.3,22.6,30.16,West,277,0.0,0.0,67,0.00,,,0.00,0,WeatherHawk,2013-03-25 12:48:00,
2013-03-25 05:53:00,31.5,21.8,30.16,West,277,0.0,-999.0,67,0.00,,,0.00,0,WeatherHawk,2013-03-25 12:53:00,
2013-03-25 05:58:00,32.5,23.5,30.16,West,277,0.0,0.0,69,0.00,,,0.00,0,WeatherHawk,2013-03-25 12:58:00,
2013-03-25 06:03:00,32.6,23.3,30.16,West,277,0.0,0.0,68,0.00,,,0.00,0,WeatherHawk,2013-03-25 13:03:00,
2013-03-25 06:08:00,32.2,22.9,30.17,West,277,0.0,-999.0,68,0.00,,,0.00,0,WeatherHawk,2013-03-25 13:08:00,
2013-03-25 06:13:00,32.7,22.6,30.17,West,277,0.0,0.0,66,0.00,,,0.00,0,WeatherHawk,2013-03-25 13:13:00,
2013-03-25 06:18:00,32.0,21.5,30.17,West,277,0.0,0.0,65,0.00,,,0.00,0,WeatherHawk,2013-03-25 13:18:00,
2013-03-25 06:23:00,32.2,22.2,30.16,NW,316,0.0,0.0,66,0.00,,,0.00,0,WeatherHawk,2013-03-25 13:23:00,
2013-03-25 06:29:00,32.1,22.4,30.16,NW,316,0.0,0.0,67,0.00,,,0.00,0,WeatherHawk,2013-03-25 13:29:00,
2013-03-25 06:34:00,32.1,22.1,30.16,NW,316,0.0,0.0,66,0.00,,,0.00,0,WeatherHawk,2013-03-25 13:34:00,
2013-03-25 06:39:00,32.2,22.1,30.17,South,182,0.0,0.0,66,0.00,,,0.00,0,WeatherHawk,2013-03-25 13:39:00,
2013-03-25 06:44:00,32.7,21.2,30.16,SE,135,2.0,0.0,62,0.00,,,0.00,0,WeatherHawk,2013-03-25 13:44:00,
2013-03-25 06:49:00,32.9,21.0,30.16,SE,135,0.0,0.0,61,0.00,,,0.00,0,WeatherHawk,2013-03-25 13:49:00,
2013-03-25 06:54:00,32.3,21.1,30.16,SE,135,0.0,0.0,63,0.00,,,0.00,0,WeatherHawk,2013-03-25 13:54:00,
2013-03-25 06:59:00,32.9,21.7,30.16,SE,135,0.0,0.0,63,0.00,,,0.00,3,WeatherHawk,2013-03-25 13:59:00,
2013-03-25 07:04:00,32.1,23.1,30.16,SE,135,0.0,0.0,69,0.00,,,0.00,3,WeatherHawk,2013-03-25 14:04:00,
2013-03-25 07:10:00,31.4,22.5,30.16,SE,135,0.0,0.0,69,0.00,,,0.00,7,WeatherHawk,2013-03-25 14:10:00,
2013-03-25 07:15:00,31.3,22.7,30.17,NE,54,0.0,0.0,70,0.00,,,0.00,11,WeatherHawk,2013-03-25 14:15:00,
2013-03-25 07:21:00,31.7,23.7,30.17,SW,233,0.0,0.0,72,0.00,,,0.00,20,WeatherHawk,2013-03-25 14:21:00,
2013-03-25 07:28:00,31.7,24.1,30.17,NNE,14,0.0,0.0,73,0.00,,,0.00,32,WeatherHawk,2013-03-25 14:28:00,
2013-03-25 07:33:00,32.1,24.4,30.16,NNE,14,0.0,0.0,73,0.00,,,0.00,40,WeatherHawk,2013-03-25 14:33:00,
2013-03-25 07:39:00,32.0,24.0,30.16,NNE,14,0.0,0.0,72,0.00,,,0.00,41,WeatherHawk,2013-03-25 14:39:00,
2013-03-25 07:44:00,32.0,24.1,30.17,NNE,14,0.0,0.0,72,0.00,,,0.00,46,WeatherHawk,2013-03-25 14:44:00,
2013-03-25 07:49:00,32.1,23.8,30.17,NNE,14,0.0,0.0,71,0.00,,,0.00,54,WeatherHawk,2013-03-25 14:49:00,
2013-03-25 07:54:00,32.2,23.5,30.17,NNE,14,0.0,0.0,70,0.00,,,0.00,65,WeatherHawk,2013-03-25 14:54:00,
2013-03-25 07:59:00,32.9,22.8,30.16,NNE,14,0.0,0.0,66,0.00,,,0.00,79,WeatherHawk,2013-03-25 14:59:00,
2013-03-25 08:04:00,33.3,21.3,30.17,NNE,14,0.0,0.0,61,0.00,,,0.00,83,WeatherHawk,2013-03-25 15:04:00,
2013-03-25 08:09:00,33.5,21.1,30.16,NNE,14,0.0,0.0,60,0.00,,,0.00,76,WeatherHawk,2013-03-25 15:09:00,
2013-03-25 08:14:00,33.9,21.1,30.16,NNE,14,0.0,0.0,59,0.00,,,0.00,62,WeatherHawk,2013-03-25 15:14:00,
2013-03-25 08:19:00,33.2,20.4,30.16,NNE,14,0.0,0.0,59,0.00,,,0.00,56,WeatherHawk,2013-03-25 15:19:00,
2013-03-25 08:25:00,32.9,22.1,30.16,NNE,14,0.0,0.0,64,0.00,,,0.00,103,WeatherHawk,2013-03-25 15:25:00,
2013-03-25 08:30:00,36.8,25.0,30.16,NNE,14,0.0,0.0,62,0.00,,,0.00,145,WeatherHawk,2013-03-25 15:30:00,
2013-03-25 08:37:00,36.3,21.2,30.16,NNE,14,0.0,0.0,54,0.00,,,0.00,193,WeatherHawk,2013-03-25 15:37:00,
2013-03-25 08:42:00,39.4,20.9,30.16,SW,224,0.0,0.0,47,0.00,,,0.00,235,WeatherHawk,2013-03-25 15:42:00,
2013-03-25 08:47:00,34.9,14.2,30.15,SSW,201,0.0,0.0,42,0.00,,,0.00,196,WeatherHawk,2013-03-25 15:47:00,
2013-03-25 08:52:00,39.0,20.0,30.15,SSW,201,0.0,0.0,46,0.00,,,0.00,254,WeatherHawk,2013-03-25 15:52:00,
2013-03-25 08:58:00,37.3,15.8,30.14,SSW,200,0.0,-999.0,41,0.00,,,0.00,208,WeatherHawk,2013-03-25 15:58:00,
2013-03-25 09:03:00,34.9,16.2,30.15,WNW,300,1.0,0.0,46,0.00,,,0.00,210,WeatherHawk,2013-03-25 16:03:00,
2013-03-25 09:09:00,39.0,19.5,30.15,WNW,300,0.0,0.0,45,0.00,,,0.00,205,WeatherHawk,2013-03-25 16:09:00,
2013-03-25 09:14:00,42.9,17.8,30.15,WSW,238,0.0,0.0,36,0.00,,,0.00,284,WeatherHawk,2013-03-25 16:14:00,
2013-03-25 09:19:00,44.3,15.6,30.14,WSW,238,0.0,0.0,31,0.00,,,0.00,265,WeatherHawk,2013-03-25 16:19:00,
2013-03-25 09:25:00,37.8,12.0,30.14,West,278,0.0,0.0,34,0.00,,,0.00,271,WeatherHawk,2013-03-25 16:25:00,
2013-03-25 09:31:00,38.1,12.9,30.14,West,262,0.0,0.0,35,0.00,,,0.00,286,WeatherHawk,2013-03-25 16:31:00,
2013-03-25 09:37:00,41.6,6.6,30.14,South,176,0.0,0.0,23,0.00,,,0.00,296,WeatherHawk,2013-03-25 16:37:00,
2013-03-25 09:43:00,41.7,4.7,30.13,WSW,237,0.0,0.0,21,0.00,,,0.00,248,WeatherHawk,2013-03-25 16:43:00,
2013-03-25 09:48:00,39.6,6.7,30.13,NNW,327,3.0,0.0,25,0.00,,,0.00,371,WeatherHawk,2013-03-25 16:48:00,
2013-03-25 09:53:00,40.2,5.4,30.13,WSW,249,0.0,-999.0,23,0.00,,,0.00,341,WeatherHawk,2013-03-25 16:53:00,
2013-03-25 09:58:00,43.1,2.5,30.12,SSW,213,0.0,-999.0,18,0.00,,,0.00,366,WeatherHawk,2013-03-25 16:58:00,
2013-03-25 10:03:00,42.4,4.2,30.12,North,350,0.0,0.0,20,0.00,,,0.00,408,WeatherHawk,2013-03-25 17:03:00,
2013-03-25 10:08:00,41.9,0.3,30.12,West,263,1.0,0.0,17,0.00,,,0.00,425,WeatherHawk,2013-03-25 17:08:00,
2013-03-25 10:14:00,39.7,2.0,30.12,West,281,1.0,0.0,20,0.00,,,0.00,397,WeatherHawk,2013-03-25 17:14:00,
2013-03-25 10:19:00,41.0,6.1,30.11,NNW,347,0.0,0.0,23,0.00,,,0.00,410,WeatherHawk,2013-03-25 17:19:00,
2013-03-25 10:24:00,45.3,8.7,30.12,WSW,242,0.0,0.0,22,0.00,,,0.00,437,WeatherHawk,2013-03-25 17:24:00,
2013-03-25 10:29:00,40.7,0.5,30.12,North,351,2.0,0.0,18,0.00,,,0.00,418,WeatherHawk,2013-03-25 17:29:00,
2013-03-25 10:34:00,40.3,2.5,30.11,NNW,327,6.0,0.0,20,0.00,,,0.00,440,WeatherHawk,2013-03-25 17:34:00,
2013-03-25 10:40:00,45.7,7.0,30.11,North,351,0.0,0.0,20,0.00,,,0.00,457,WeatherHawk,2013-03-25 17:40:00,
2013-03-25 10:45:00,43.1,6.9,30.11,East,96,0.0,0.0,22,0.00,,,0.00,451,WeatherHawk,2013-03-25 17:45:00,
2013-03-25 10:50:00,41.5,5.5,30.11,North,0,5.0,0.0,22,0.00,,,0.00,436,WeatherHawk,2013-03-25 17:50:00,
2013-03-25 10:55:00,43.6,5.2,30.10,WNW,289,0.0,0.0,20,0.00,,,0.00,440,WeatherHawk,2013-03-25 17:55:00,
2013-03-25 11:00:00,44.3,4.7,30.10,NW,313,0.0,0.0,19,0.00,,,0.00,508,WeatherHawk,2013-03-25 18:00:00,
2013-03-25 11:05:00,44.1,5.7,30.10,North,1,0.0,0.0,20,0.00,,,0.00,489,WeatherHawk,2013-03-25 18:05:00,
2013-03-25 11:10:00,42.6,3.3,30.10,NNE,21,3.0,0.0,19,0.00,,,0.00,433,WeatherHawk,2013-03-25 18:10:00,
2013-03-25 11:15:00,42.9,4.6,30.10,North,3,6.0,0.0,20,0.00,,,0.00,479,WeatherHawk,2013-03-25 18:15:00,
2013-03-25 11:20:00,47.9,8.8,30.09,NE,47,0.0,0.0,20,0.00,,,0.00,489,WeatherHawk,2013-03-25 18:20:00,
2013-03-25 11:25:00,49.1,9.8,30.09,WNW,293,0.0,0.0,20,0.00,,,0.00,551,WeatherHawk,2013-03-25 18:25:00,
2013-03-25 11:31:00,42.5,6.4,30.09,WNW,289,4.0,0.0,22,0.00,,,0.00,439,WeatherHawk,2013-03-25 18:31:00,
2013-03-25 11:36:00,44.3,8.9,30.09,NW,316,2.0,0.0,23,0.00,,,0.00,511,WeatherHawk,2013-03-25 18:36:00,
2013-03-25 11:41:00,44.2,8.8,30.09,NE,38,4.0,0.0,23,0.00,,,0.00,352,WeatherHawk,2013-03-25 18:41:00,
2013-03-25 11:47:00,44.3,7.9,30.09,NE,41,3.0,0.0,22,0.00,,,0.00,359,WeatherHawk,2013-03-25 18:47:00,
2013-03-25 11:52:00,44.1,4.5,30.08,NNE,25,5.0,0.0,19,0.00,,,0.00,408,WeatherHawk,2013-03-25 18:52:00,
2013-03-25 11:57:00,44.0,7.6,30.08,NE,38,4.0,0.0,22,0.00,,,0.00,550,WeatherHawk,2013-03-25 18:57:00,
2013-03-25 12:03:00,47.0,5.7,30.08,NW,321,0.0,0.0,18,0.00,,,0.00,514,WeatherHawk,2013-03-25 19:03:00,
2013-03-25 12:08:00,43.9,3.2,30.08,North,3,1.0,0.0,18,0.00,,,0.00,333,WeatherHawk,2013-03-25 19:08:00,
2013-03-25 12:13:00,47.6,7.4,30.08,NNE,30,0.0,0.0,19,0.00,,,0.00,376,WeatherHawk,2013-03-25 19:13:00,
2013-03-25 12:18:00,44.2,4.6,30.07,NE,35,5.0,0.0,19,0.00,,,0.00,455,WeatherHawk,2013-03-25 19:18:00,
2013-03-25 12:23:00,44.0,6.6,30.07,NE,37,4.0,0.0,21,0.00,,,0.00,264,WeatherHawk,2013-03-25 19:23:00,
2013-03-25 12:28:00,44.2,4.6,30.06,North,8,6.0,-999.0,19,0.00,,,0.00,555,WeatherHawk,2013-03-25 19:28:00,
2013-03-25 12:33:00,47.6,8.6,30.06,East,84,0.0,0.0,20,0.00,,,0.00,532,WeatherHawk,2013-03-25 19:33:00,
2013-03-25 12:38:00,44.8,6.2,30.06,NE,35,5.0,0.0,20,0.00,,,0.00,535,WeatherHawk,2013-03-25 19:38:00,
2013-03-25 12:43:00,45.2,5.4,30.06,North,10,6.0,-999.0,19,0.00,,,0.00,334,WeatherHawk,2013-03-25 19:43:00,
2013-03-25 12:48:00,44.7,5.0,30.06,NNE,21,4.0,0.0,19,0.00,,,0.00,327,WeatherHawk,2013-03-25 19:48:00,
2013-03-25 12:53:00,46.2,5.1,30.06,NNW,348,3.0,0.0,18,0.00,,,0.00,337,WeatherHawk,2013-03-25 19:53:00,
2013-03-25 12:58:00,45.6,6.8,30.06,North,351,7.0,0.0,20,0.00,,,0.00,328,WeatherHawk,2013-03-25 19:58:00,
2013-03-25 13:03:00,45.7,8.1,30.05,NW,306,3.0,0.0,21,0.00,,,0.00,334,WeatherHawk,2013-03-25 20:03:00,
2013-03-25 13:08:00,46.0,4.9,30.05,WNW,299,3.0,0.0,18,0.00,,,0.00,351,WeatherHawk,2013-03-25 20:08:00,
2013-03-25 13:13:00,45.2,5.5,30.05,NNW,330,7.0,0.0,19,0.00,,,0.00,550,WeatherHawk,2013-03-25 20:13:00,
2013-03-25 13:19:00,47.6,6.2,30.05,WNW,293,5.0,0.0,18,0.00,,,0.00,493,WeatherHawk,2013-03-25 20:19:00,
2013-03-25 13:24:00,46.5,5.3,30.04,West,278,3.0,0.0,18,0.00,,,0.00,319,WeatherHawk,2013-03-25 20:24:00,
2013-03-25 13:29:00,46.4,7.6,30.05,NNW,330,3.0,0.0,20,0.00,,,0.00,395,WeatherHawk,2013-03-25 20:29:00,
2013-03-25 13:35:00,46.0,4.9,30.05,West,274,4.0,0.0,18,0.00,,,0.00,386,WeatherHawk,2013-03-25 20:35:00,
2013-03-25 13:40:00,45.7,-0.7,30.05,NW,316,6.0,0.0,14,0.00,,,0.00,330,WeatherHawk,2013-03-25 20:40:00,
2013-03-25 13:45:00,46.2,5.1,30.04,WNW,293,4.0,0.0,18,0.00,,,0.00,356,WeatherHawk,2013-03-25 20:45:00,
2013-03-25 13:50:00,48.2,6.7,30.04,NNW,332,6.0,0.0,18,0.00,,,0.00,384,WeatherHawk,2013-03-25 20:50:00,
2013-03-25 13:55:00,46.1,2.4,30.03,NW,307,4.0,0.0,16,0.00,,,0.00,359,WeatherHawk,2013-03-25 20:55:00,
2013-03-25 14:00:00,46.8,3.0,30.03,WNW,287,6.0,0.0,16,0.00,,,0.00,334,WeatherHawk,2013-03-25 21:00:00,
2013-03-25 14:05:00,48.3,6.8,30.03,NW,307,5.0,0.0,18,0.00,,,0.00,344,WeatherHawk,2013-03-25 21:05:00,
2013-03-25 14:10:00,46.8,1.6,30.03,NW,305,6.0,0.0,15,0.00,,,0.00,327,WeatherHawk,2013-03-25 21:10:00,
2013-03-25 14:15:00,49.0,4.8,30.03,WSW,250,0.0,0.0,16,0.00,,,0.00,335,WeatherHawk,2013-03-25 21:15:00,
2013-03-25 14:20:00,47.9,2.5,30.02,NW,304,6.0,0.0,15,0.00,,,0.00,342,WeatherHawk,2013-03-25 21:20:00,
2013-03-25 14:25:00,49.6,6.6,30.02,NW,304,0.0,0.0,17,0.00,,,0.00,359,WeatherHawk,2013-03-25 21:25:00,
2013-03-25 14:31:00,49.7,5.4,30.02,NNW,329,5.0,0.0,16,0.00,,,0.00,374,WeatherHawk,2013-03-25 21:31:00,
2013-03-25 14:36:00,48.9,0.2,30.02,NW,308,0.0,0.0,13,0.00,,,0.00,450,WeatherHawk,2013-03-25 21:36:00,
2013-03-25 14:41:00,49.6,2.4,30.01,NW,323,7.0,0.0,14,0.00,,,0.00,409,WeatherHawk,2013-03-25 21:41:00,
2013-03-25 14:47:00,49.5,5.2,30.01,NNW,343,0.0,0.0,16,0.00,,,0.00,393,WeatherHawk,2013-03-25 21:47:00,
2013-03-25 14:52:00,47.8,-2.3,30.01,NNW,327,7.0,0.0,12,0.00,,,0.00,433,WeatherHawk,2013-03-25 21:52:00,
2013-03-25 15:03:00,51.6,-1.1,30.02,SW,231,0.0,0.0,11,0.00,,,0.00,224,WeatherHawk,2013-03-25 22:03:00,
2013-03-25 15:08:00,49.2,3.6,30.01,SSW,198,0.0,0.0,15,0.00,,,0.00,224,WeatherHawk,2013-03-25 22:08:00,
2013-03-25 15:13:00,48.6,-1.7,30.01,NNW,348,4.0,0.0,12,0.00,,,0.00,226,WeatherHawk,2013-03-25 22:13:00,
2013-03-25 15:19:00,49.7,4.0,30.00,North,6,5.0,0.0,15,0.00,,,0.00,248,WeatherHawk,2013-03-25 22:19:00,
2013-03-25 15:24:00,49.4,0.6,30.00,NW,311,2.0,0.0,13,0.00,,,0.00,250,WeatherHawk,2013-03-25 22:24:00,
2013-03-25 15:29:00,48.6,3.1,30.00,NW,309,5.0,0.0,15,0.00,,,0.00,267,WeatherHawk,2013-03-25 22:29:00,
2013-03-25 15:34:00,48.9,3.3,30.00,NW,323,2.0,0.0,15,0.00,,,0.00,254,WeatherHawk,2013-03-25 22:34:00,
2013-03-25 15:39:00,49.3,6.4,30.00,North,10,5.0,0.0,17,0.00,,,0.00,241,WeatherHawk,2013-03-25 22:39:00,
2013-03-25 15:44:00,49.3,5.0,29.99,North,1,6.0,0.0,16,0.00,,,0.00,228,WeatherHawk,2013-03-25 22:44:00,
2013-03-25 15:49:00,50.3,5.8,30.00,North,5,4.0,0.0,16,0.00,,,0.00,212,WeatherHawk,2013-03-25 22:49:00,
2013-03-25 15:54:00,49.2,5.0,30.00,North,7,6.0,0.0,16,0.00,,,0.00,180,WeatherHawk,2013-03-25 22:54:00,
2013-03-25 16:00:00,49.2,4.9,30.00,NNW,330,5.0,0.0,16,0.00,,,0.00,135,WeatherHawk,2013-03-25 23:00:00,
2013-03-25 16:05:00,50.0,6.9,29.99,NNW,343,5.0,0.0,17,0.00,,,0.00,128,WeatherHawk,2013-03-25 23:05:00,
2013-03-25 16:11:00,49.9,6.8,29.99,NNE,17,5.0,0.0,17,0.00,,,0.00,132,WeatherHawk,2013-03-25 23:11:00,
2013-03-25 16:16:00,49.5,6.5,29.99,NW,312,6.0,0.0,17,0.00,,,0.00,139,WeatherHawk,2013-03-25 23:16:00,
2013-03-25 16:22:00,49.7,6.7,30.00,North,351,3.0,0.0,17,0.00,,,0.00,148,WeatherHawk,2013-03-25 23:22:00,
2013-03-25 16:27:00,50.9,11.2,29.99,NW,320,3.0,0.0,20,0.00,,,0.00,177,WeatherHawk,2013-03-25 23:27:00,
2013-03-25 16:32:00,50.6,7.4,29.99,WNW,287,2.0,0.0,17,0.00,,,0.00,178,WeatherHawk,2013-03-25 23:32:00,
2013-03-25 16:37:00,49.7,6.7,29.99,NW,318,4.0,0.0,17,0.00,,,0.00,151,WeatherHawk,2013-03-25 23:37:00,
2013-03-25 16:42:00,49.8,5.5,29.99,WSW,258,0.0,0.0,16,0.00,,,0.00,132,WeatherHawk,2013-03-25 23:42:00,
2013-03-25 16:47:00,50.4,5.9,29.99,West,276,0.0,0.0,16,0.00,,,0.00,116,WeatherHawk,2013-03-25 23:47:00,
2013-03-25 16:53:00,50.2,5.8,29.99,NNW,341,0.0,-999.0,16,0.00,,,0.00,142,WeatherHawk,2013-03-25 23:53:00,
2013-03-25 16:58:00,50.1,4.2,29.98,NW,321,3.0,0.0,15,0.00,,,0.00,170,WeatherHawk,2013-03-25 23:58:00,
2013-03-25 17:03:00,50.7,6.2,29.98,WNW,289,3.0,0.0,16,0.00,,,0.00,168,WeatherHawk,2013-03-26 00:03:00,
2013-03-25 17:08:00,50.4,8.5,29.98,NNW,339,4.0,0.0,18,0.00,,,0.00,156,WeatherHawk,2013-03-26 00:08:00,
2013-03-25 17:13:00,50.0,2.7,29.98,WNW,284,4.0,0.0,14,0.00,,,0.00,155,WeatherHawk,2013-03-26 00:13:00,
2013-03-25 17:18:00,50.3,3.0,29.99,WSW,245,0.0,0.0,14,0.00,,,0.00,148,WeatherHawk,2013-03-26 00:18:00,
2013-03-25 17:23:00,50.4,4.6,29.98,NW,324,2.0,-999.0,15,0.00,,,0.00,122,WeatherHawk,2013-03-26 00:23:00,
2013-03-25 17:28:00,50.0,4.2,29.98,NNW,329,1.0,0.0,15,0.00,,,0.00,105,WeatherHawk,2013-03-26 00:28:00,
2013-03-25 17:33:00,50.2,7.1,29.98,NW,310,4.0,-999.0,17,0.00,,,0.00,84,WeatherHawk,2013-03-26 00:33:00,
2013-03-25 17:38:00,50.2,7.1,29.98,West,267,4.0,0.0,17,0.00,,,0.00,76,WeatherHawk,2013-03-26 00:38:00,
2013-03-25 17:43:00,50.3,8.4,29.98,NNW,330,6.0,-999.0,18,0.00,,,0.00,76,WeatherHawk,2013-03-26 00:43:00,
2013-03-25 17:48:00,50.3,8.5,29.98,NNW,330,4.0,0.0,18,0.00,,,0.00,75,WeatherHawk,2013-03-26 00:48:00,
2013-03-25 17:53:00,50.3,7.2,29.98,NNW,336,5.0,0.0,17,0.00,,,0.00,69,WeatherHawk,2013-03-26 00:53:00,
2013-03-25 17:58:00,50.2,8.3,29.98,NW,308,7.0,0.0,18,0.00,,,0.00,61,WeatherHawk,2013-03-26 00:58:00,
2013-03-25 18:03:00,49.7,8.0,29.98,NNE,19,10.0,0.0,18,0.00,,,0.00,46,WeatherHawk,2013-03-26 01:03:00,
2013-03-25 18:08:00,49.6,10.2,29.98,NNW,330,10.0,0.0,20,0.00,,,0.00,37,WeatherHawk,2013-03-26 01:08:00,
2013-03-25 18:13:00,49.3,8.8,29.98,North,0,13.0,0.0,19,0.00,,,0.00,34,WeatherHawk,2013-03-26 01:13:00,
2013-03-25 18:18:00,49.2,9.9,29.98,North,0,9.0,0.0,20,0.00,,,0.00,34,WeatherHawk,2013-03-26 01:18:00,
2013-03-25 18:23:00,49.1,9.8,29.98,NNE,17,6.0,0.0,20,0.00,,,0.00,37,WeatherHawk,2013-03-26 01:23:00,
2013-03-25 18:28:00,49.0,9.7,29.98,West,275,6.0,0.0,20,0.00,,,0.00,44,WeatherHawk,2013-03-26 01:28:00,
2013-03-25 18:33:00,48.8,11.6,29.99,NNE,25,8.0,0.0,22,0.00,,,0.00,44,WeatherHawk,2013-03-26 01:33:00,
2013-03-25 18:38:00,48.9,9.7,29.99,North,0,11.0,0.0,20,0.00,,,0.00,42,WeatherHawk,2013-03-26 01:38:00,
2013-03-25 18:43:00,48.8,11.7,29.99,WNW,300,10.0,0.0,22,0.00,,,0.00,36,WeatherHawk,2013-03-26 01:43:00,
2013-03-25 18:48:00,48.7,10.5,29.99,NNW,329,13.0,0.0,21,0.00,,,0.00,32,WeatherHawk,2013-03-26 01:48:00,
2013-03-25 18:53:00,48.7,10.6,29.98,NW,307,15.0,0.0,21,0.00,,,0.00,26,WeatherHawk,2013-03-26 01:53:00,
2013-03-25 18:58:00,48.6,9.4,29.99,NE,38,8.0,0.0,20,0.00,,,0.00,22,WeatherHawk,2013-03-26 01:58:00,
2013-03-25 19:03:00,48.4,11.3,29.99,NW,311,12.0,-999.0,22,0.00,,,0.00,17,WeatherHawk,2013-03-26 02:03:00,
2013-03-25 19:08:00,48.1,12.1,29.98,NE,38,11.0,0.0,23,0.00,,,0.00,13,WeatherHawk,2013-03-26 02:08:00,
2013-03-25 19:13:00,48.0,10.0,29.99,West,278,6.0,0.0,21,0.00,,,0.00,8,WeatherHawk,2013-03-26 02:13:00,
2013-03-25 19:18:00,47.7,9.7,29.99,NW,319,5.0,0.0,21,0.00,,,0.00,4,WeatherHawk,2013-03-26 02:18:00,
2013-03-25 19:23:00,47.8,10.8,29.98,West,281,9.0,0.0,22,0.00,,,0.00,2,WeatherHawk,2013-03-26 02:23:00,
2013-03-25 19:28:00,47.5,9.5,29.99,WNW,284,8.0,0.0,21,0.00,,,0.00,1,WeatherHawk,2013-03-26 02:28:00,
2013-03-25 19:33:00,47.6,9.6,29.99,North,3,12.0,-999.0,21,0.00,,,0.00,0,WeatherHawk,2013-03-26 02:33:00,
2013-03-25 19:38:00,47.4,10.5,29.99,WNW,283,12.0,0.0,22,0.00,,,0.00,0,WeatherHawk,2013-03-26 02:38:00,
2013-03-25 19:43:00,47.0,11.2,29.99,NW,326,6.0,0.0,23,0.00,,,0.00,0,WeatherHawk,2013-03-26 02:43:00,
2013-03-25 19:48:00,47.5,11.6,29.99,NNW,328,9.0,0.0,23,0.00,,,0.00,0,WeatherHawk,2013-03-26 02:48:00,
2013-03-25 19:53:00,47.4,11.5,29.99,North,7,6.0,0.0,23,0.00,,,0.00,0,WeatherHawk,2013-03-26 02:53:00,
2013-03-25 19:58:00,46.8,10.9,29.99,NW,311,4.0,0.0,23,0.00,,,0.00,0,WeatherHawk,2013-03-26 02:58:00,
2013-03-25 20:03:00,46.4,11.6,29.99,North,5,5.0,0.0,24,0.00,,,0.00,0,WeatherHawk,2013-03-26 03:03:00,
2013-03-25 20:08:00,47.1,10.2,30.00,NW,305,6.0,0.0,22,0.00,,,0.00,0,WeatherHawk,2013-03-26 03:08:00,
2013-03-25 20:13:00,46.5,10.7,30.00,North,0,4.0,-999.0,23,0.00,,,0.00,0,WeatherHawk,2013-03-26 03:13:00,
2013-03-25 20:18:00,46.6,11.7,30.00,North,7,5.0,-999.0,24,0.00,,,0.00,0,WeatherHawk,2013-03-26 03:18:00,
2013-03-25 20:23:00,46.9,10.1,30.00,North,351,7.0,0.0,22,0.00,,,0.00,0,WeatherHawk,2013-03-26 03:23:00,
2013-03-25 20:28:00,46.8,12.0,30.00,NW,316,4.0,-999.0,24,0.00,,,0.00,0,WeatherHawk,2013-03-26 03:28:00,
2013-03-25 20:33:00,46.8,11.0,30.00,NNW,346,9.0,0.0,23,0.00,,,0.00,0,WeatherHawk,2013-03-26 03:33:00,
2013-03-25 20:38:00,46.5,10.7,30.00,North,351,5.0,0.0,23,0.00,,,0.00,1,WeatherHawk,2013-03-26 03:38:00,
2013-03-25 20:43:00,46.5,10.7,30.00,NNW,337,10.0,0.0,23,0.00,,,0.00,0,WeatherHawk,2013-03-26 03:43:00,
2013-03-25 20:48:00,46.3,9.6,30.00,NNW,344,7.0,0.0,22,0.00,,,0.00,1,WeatherHawk,2013-03-26 03:48:00,
2013-03-25 20:53:00,46.4,11.6,30.01,NNE,20,5.0,0.0,24,0.00,,,0.00,0,WeatherHawk,2013-03-26 03:53:00,
2013-03-25 20:58:00,46.2,10.5,30.00,NW,312,3.0,0.0,23,0.00,,,0.00,1,WeatherHawk,2013-03-26 03:58:00,
2013-03-25 21:00:00,46.1,11.3,30.01,NW,320,4.0,0.0,24,0.00,,,0.00,1,WeatherHawk,2013-03-26 04:00:00,
2013-03-25 21:03:00,45.8,12.0,30.01,North,3,6.0,-999.0,25,0.00,,,0.00,0,WeatherHawk,2013-03-26 04:03:00,
2013-03-25 21:04:00,46.0,11.3,30.01,NNE,23,6.0,0.0,24,0.00,,,0.00,0,WeatherHawk,2013-03-26 04:04:00,
2013-03-25 21:09:00,46.3,11.5,30.01,NE,40,4.0,0.0,24,0.00,,,0.00,0,WeatherHawk,2013-03-26 04:09:00,
2013-03-25 21:15:00,46.0,11.2,30.01,North,5,7.0,0.0,24,0.00,,,0.00,0,WeatherHawk,2013-03-26 04:15:00,
2013-03-25 21:20:00,46.0,11.3,30.02,North,5,12.0,0.0,24,0.00,,,0.00,0,WeatherHawk,2013-03-26 04:20:00,
2013-03-25 21:25:00,45.7,10.0,30.02,NW,317,6.0,0.0,23,0.00,,,0.00,0,WeatherHawk,2013-03-26 04:25:00,
2013-03-25 21:30:00,46.2,10.4,30.02,North,0,8.0,0.0,23,0.00,,,0.00,0,WeatherHawk,2013-03-26 04:30:00,
2013-03-25 21:35:00,45.6,11.8,30.03,NNW,331,5.0,0.0,25,0.00,,,0.00,0,WeatherHawk,2013-03-26 04:35:00,
2013-03-25 21:40:00,45.4,13.4,30.03,WNW,291,5.0,0.0,27,0.00,,,0.00,0,WeatherHawk,2013-03-26 04:40:00,
2013-03-25 21:45:00,45.1,13.2,30.03,NNW,334,6.0,0.0,27,0.00,,,0.00,0,WeatherHawk,2013-03-26 04:45:00,
2013-03-25 21:50:00,45.2,12.4,30.03,NW,318,8.0,0.0,26,0.00,,,0.00,0,WeatherHawk,2013-03-26 04:50:00,
2013-03-25 21:55:00,45.1,12.3,30.02,NW,307,6.0,0.0,26,0.00,,,0.00,0,WeatherHawk,2013-03-26 04:55:00,
2013-03-25 22:00:00,45.1,13.1,30.02,North,351,6.0,0.0,27,0.00,,,0.00,0,WeatherHawk,2013-03-26 05:00:00,
2013-03-25 22:05:00,45.0,13.0,30.03,North,349,5.0,0.0,27,0.00,,,0.00,0,WeatherHawk,2013-03-26 05:05:00,
2013-03-25 22:10:00,44.9,11.2,30.03,NNE,22,2.0,0.0,25,0.00,,,0.00,0,WeatherHawk,2013-03-26 05:10:00,
2013-03-25 22:16:00,45.3,12.5,30.03,North,0,7.0,0.0,26,0.00,,,0.00,0,WeatherHawk,2013-03-26 05:16:00,
2013-03-25 22:21:00,44.9,13.0,30.03,WNW,293,6.0,0.0,27,0.00,,,0.00,0,WeatherHawk,2013-03-26 05:21:00,
2013-03-25 22:27:00,44.4,13.4,30.03,North,350,4.0,0.0,28,0.00,,,0.00,0,WeatherHawk,2013-03-26 05:27:00,
2013-03-25 22:32:00,44.7,12.8,30.04,NW,324,7.0,0.0,27,0.00,,,0.00,0,WeatherHawk,2013-03-26 05:32:00,
2013-03-25 22:37:00,44.9,13.0,30.03,NW,314,8.0,0.0,27,0.00,,,0.00,0,WeatherHawk,2013-03-26 05:37:00,
2013-03-25 22:42:00,44.7,13.6,30.03,NNW,336,6.0,0.0,28,0.00,,,0.00,0,WeatherHawk,2013-03-26 05:42:00,
2013-03-25 22:47:00,44.7,12.8,30.04,NW,304,8.0,0.0,27,0.00,,,0.00,0,WeatherHawk,2013-03-26 05:47:00,
2013-03-25 22:52:00,44.7,14.4,30.03,NNW,329,7.0,0.0,29,0.00,,,0.00,0,WeatherHawk,2013-03-26 05:52:00,
2013-03-25 22:57:00,44.5,15.0,30.04,WNW,301,6.0,0.0,30,0.00,,,0.00,0,WeatherHawk,2013-03-26 05:57:00,
2013-03-25 23:02:00,44.5,14.3,30.04,WNW,286,8.0,0.0,29,0.00,,,0.00,0,WeatherHawk,2013-03-26 06:02:00,
2013-03-25 23:07:00,44.4,14.9,30.04,NW,307,5.0,0.0,30,0.00,,,0.00,0,WeatherHawk,2013-03-26 06:07:00,
2013-03-25 23:12:00,44.4,13.4,30.04,WSW,249,5.0,0.0,28,0.00,,,0.00,0,WeatherHawk,2013-03-26 06:12:00,
2013-03-25 23:17:00,44.1,15.4,30.04,NNW,339,5.0,0.0,31,0.00,,,0.00,0,WeatherHawk,2013-03-26 06:17:00,
2013-03-25 23:22:00,44.1,14.7,30.03,NNW,346,4.0,0.0,30,0.00,,,0.00,0,WeatherHawk,2013-03-26 06:22:00,
2013-03-25 23:28:00,44.2,14.0,30.04,NNW,344,5.0,0.0,29,0.00,,,0.00,0,WeatherHawk,2013-03-26 06:28:00,
2013-03-25 23:33:00,44.2,13.9,30.04,NNW,334,3.0,-999.0,29,0.00,,,0.00,0,WeatherHawk,2013-03-26 06:33:00,
2013-03-25 23:38:00,44.2,14.7,30.04,WNW,300,1.0,0.0,30,0.00,,,0.00,1,WeatherHawk,2013-03-26 06:38:00,
2013-03-25 23:43:00,43.9,14.5,30.04,WNW,288,0.0,0.0,30,0.00,,,0.00,0,WeatherHawk,2013-03-26 06:43:00,
2013-03-25 23:48:00,43.9,15.3,30.03,West,261,0.0,0.0,31,0.00,,,0.00,0,WeatherHawk,2013-03-26 06:48:00,
2013-03-25 23:53:00,43.7,15.1,30.04,WNW,295,0.0,0.0,31,0.00,,,0.00,0,WeatherHawk,2013-03-26 06:53:00,
2013-03-25 23:58:00,43.2,16.7,30.03,WNW,295,0.0,0.0,34,0.00,,,0.00,0,WeatherHawk,2013-03-26 06:58:00,